TimePST,TemperatureF,Dew PointF,Humidity,Sea Level PressureIn,VisibilityMPH,Wind Direction,Wind SpeedMPH,Gust SpeedMPH,PrecipitationIn,Events,Conditions,WindDirDegrees,DateUTC
12:05 AM,48.2,42.8,82,29.81,10.0,SE,4.6,-,0.00,Rain,Light Rain,140,2012-12-03 08:05:00
12:27 AM,48.2,42.8,82,29.80,10.0,SE,3.5,-,N/A,,Overcast,140,2012-12-03 08:27:00
12:53 AM,48.9,43.0,80,29.82,10.0,SSE,8.1,-,0.03,Rain,Light Rain,160,2012-12-03 08:53:00
1:03 AM,48.2,42.8,82,29.80,10.0,SSE,5.8,-,0.00,Rain,Light Rain,150,2012-12-03 09:03:00
1:42 AM,48.2,44.6,87,29.81,10.0,ESE,4.6,-,0.01,Rain,Light Rain,120,2012-12-03 09:42:00
1:49 AM,48.2,44.6,87,29.81,10.0,ESE,4.6,-,0.01,Rain,Light Rain,110,2012-12-03 09:49:00
1:53 AM,48.0,44.1,86,29.83,10.0,Variable,5.8,-,0.02,Rain,Light Rain,0,2012-12-03 09:53:00
2:22 AM,50.0,42.8,76,29.83,10.0,SSE,9.2,-,0.00,Rain,Light Rain,160,2012-12-03 10:22:00
2:53 AM,50.0,43.0,77,29.86,10.0,SSE,10.4,18.4,0.00,,Overcast,160,2012-12-03 10:53:00
3:53 AM,51.1,42.1,71,29.88,10.0,SSE,9.2,-,N/A,,Overcast,160,2012-12-03 11:53:00
4:53 AM,48.9,44.1,83,29.89,4.0,South,3.5,-,0.05,Rain,Rain,180,2012-12-03 12:53:00
5:09 AM,48.2,44.6,87,29.88,2.5,SSE,5.8,-,0.08,Rain,Heavy Rain,160,2012-12-03 13:09:00
5:23 AM,48.2,44.6,87,29.89,3.0,WSW,3.5,-,0.14,Rain,Rain,250,2012-12-03 13:23:00
5:31 AM,48.2,42.8,82,29.89,2.5,Variable,4.6,-,N/A,Rain,Rain,0,2012-12-03 13:31:00
5:34 AM,48.2,44.6,87,29.89,3.0,Variable,5.8,-,0.18,Rain,Rain,0,2012-12-03 13:34:00
5:41 AM,48.2,44.6,87,29.89,5.0,SE,4.6,-,0.19,Rain,Rain,140,2012-12-03 13:41:00
5:53 AM,48.9,43.0,80,29.92,7.0,Variable,6.9,-,0.21,Rain,Light Rain,0,2012-12-03 13:53:00
6:53 AM,48.2,42.8,82,29.91,10.0,SSE,8.1,-,N/A,,Overcast,150,2012-12-03 14:53:00
7:53 AM,48.9,43.0,80,29.95,10.0,SSE,9.2,-,N/A,,Overcast,160,2012-12-03 15:53:00
8:53 AM,48.9,43.0,80,29.98,10.0,SSE,10.4,-,N/A,,Overcast,150,2012-12-03 16:53:00
9:40 AM,48.2,44.6,87,29.98,10.0,SE,4.6,-,0.00,,Overcast,140,2012-12-03 17:40:00
9:53 AM,48.9,44.1,83,30.00,10.0,SSE,6.9,-,0.00,,Overcast,150,2012-12-03 17:53:00
10:33 AM,50.0,44.6,82,30.00,10.0,SSE,6.9,-,N/A,,Overcast,150,2012-12-03 18:33:00
10:41 AM,50.0,44.6,82,30.01,10.0,SSE,6.9,-,N/A,,Overcast,150,2012-12-03 18:41:00
10:53 AM,50.0,44.6,82,30.01,10.0,SE,6.9,-,N/A,,Overcast,130,2012-12-03 18:53:00
11:18 AM,50.0,44.6,82,30.01,10.0,Variable,5.8,-,N/A,,Overcast,0,2012-12-03 19:18:00
11:53 AM,50.0,44.1,80,30.03,10.0,Variable,4.6,-,N/A,,Overcast,0,2012-12-03 19:53:00
12:43 PM,50.0,44.6,82,30.00,10.0,ESE,5.8,-,0.00,Rain,Light Rain,110,2012-12-03 20:43:00
12:53 PM,50.0,45.0,83,30.01,10.0,East,6.9,-,0.00,,Overcast,100,2012-12-03 20:53:00
1:26 PM,50.0,44.6,82,29.98,6.0,SE,3.5,-,0.01,Rain,Light Rain,130,2012-12-03 21:26:00
1:45 PM,50.0,44.6,82,29.98,4.0,ESE,6.9,-,0.02,Rain,Light Rain,110,2012-12-03 21:45:00
1:53 PM,50.0,45.0,83,29.99,3.0,East,5.8,-,0.02,Rain,Light Rain,100,2012-12-03 21:53:00
2:53 PM,50.0,45.0,83,29.97,10.0,ESE,4.6,-,0.01,Rain,Light Rain,120,2012-12-03 22:53:00
3:03 PM,50.0,46.4,87,29.96,2.5,SE,5.8,-,0.01,Rain,Light Rain,130,2012-12-03 23:03:00
3:19 PM,50.0,46.4,87,29.95,6.0,Variable,3.5,-,0.02,Rain,Light Rain,0,2012-12-03 23:19:00
3:53 PM,50.0,45.0,83,29.96,7.0,SSE,4.6,-,0.03,Rain,Light Rain,160,2012-12-03 23:53:00
4:53 PM,48.9,45.0,86,29.93,10.0,Calm,Calm,-,0.01,Rain,Light Rain,0,2012-12-04 00:53:00
5:53 PM,48.9,45.0,86,29.92,10.0,SE,4.6,-,0.01,Rain,Light Rain,140,2012-12-04 01:53:00
6:53 PM,48.9,44.1,83,29.90,10.0,Calm,Calm,-,0.01,,Overcast,0,2012-12-04 02:53:00
7:53 PM,50.0,44.1,80,29.87,10.0,Variable,3.5,-,0.00,Rain,Light Rain,0,2012-12-04 03:53:00
8:53 PM,50.0,44.1,80,29.82,10.0,SE,3.5,-,0.00,Rain,Light Rain,140,2012-12-04 04:53:00
9:53 PM,51.1,43.0,74,29.76,10.0,Calm,Calm,-,0.01,,Overcast,0,2012-12-04 05:53:00
10:53 PM,50.0,44.1,80,29.70,10.0,South,3.5,-,0.00,Rain,Light Rain,180,2012-12-04 06:53:00
11:53 PM,50.0,43.0,77,29.66,10.0,Calm,Calm,-,0.00,Rain,Light Rain,0,2012-12-04 07:53:00